This demonstration page uses our WeatherBlox Daily Observations layout. Learn more.

Left ArrowRight Arrow

53.62937, 11.41316

Hourly Observations for January 1, 2020

Temp ( °F °C ) Dew Point ( °F °C ) Humidity (%) Winds ( mph kmh ) Pressure ( in mb ) Visibility ( mi km ) Precip ( " mm )
12:20 am 00:20 Mostly Clear 36 2 34 1 93 93 W 8 13 30.48 1032 30 48 N/A
1:20 am 01:20 Mostly Clear 36 2 34 1 93 93 W 10 17 30.48 1032 6 9 N/A
2:20 am 02:20 Partly Cloudy 34 1 34 1 100 100 W 7 11 30.48 1032 4 7 N/A
3:20 am 03:20 Partly Cloudy 34 1 34 1 100 100 W 6 9 30.45 1031 4 7 N/A
4:20 am 04:20 Mostly Clear 36 2 34 1 93 93 W 7 11 30.48 1032 5 8 N/A
5:15 am 05:15 Mostly Cloudy 36 2 34 1 93 93 W 6 9 30.48 1032 4 7 N/A
5:20 am 05:20 Mostly Cloudy 36 2 34 1 93 93 WSW 6 9 30.48 1032 4 7 N/A
6:20 am 06:20 Mostly Cloudy 36 2 34 1 93 93 W 8 13 30.48 1032 4 6 N/A
7:20 am 07:20 Mostly Cloudy 37 3 34 1 87 87 W 8 13 30.48 1032 4 7 N/A
8:20 am 08:20 Mostly Cloudy 37 3 34 1 87 87 WNW 12 19 30.48 1032 30 48 N/A
9:20 am 09:20 Mostly Cloudy 37 3 34 1 87 87 W 10 17 30.48 1032 30 48 N/A
10:20 am 10:20 Mostly Cloudy 37 3 34 1 87 87 W 12 19 30.48 1032 30 48 N/A
11:20 am 11:20 Mostly Cloudy 37 3 32 0 81 81 W 12 19 30.48 1032 30 48 N/A
12:20 pm 12:20 Mostly Cloudy 37 3 32 0 81 81 W 13 20 30.45 1031 30 48 N/A
1:20 pm 13:20 Mostly Cloudy 37 3 32 0 81 81 WSW 9 15 30.45 1031 30 48 N/A
2:20 pm 14:20 Mostly Cloudy 37 3 32 0 81 81 WSW 8 13 30.42 1030 30 48 N/A
3:20 pm 15:20 Mostly Cloudy 37 3 32 0 81 81 WSW 8 13 30.42 1030 30 48 N/A
4:20 pm 16:20 Mostly Cloudy 37 3 34 1 87 87 SW 6 9 30.42 1030 30 48 N/A
4:53 pm 16:53 Mostly Clear 36 2 34 1 93 93 SW 9 15 30.42 1030 5 8 N/A
5:20 pm 17:20 Mostly Clear 36 2 32 0 87 87 SW 7 11 30.42 1030 30 48 N/A
6:20 pm 18:20 Mostly Clear 34 1 32 0 93 93 SW 8 13 30.39 1029 30 48 N/A
7:20 pm 19:20 Mostly Clear 34 1 32 0 93 93 SW 7 11 30.39 1029 30 48 N/A
8:20 pm 20:20 Mostly Clear 32 0 30 -1 93 93 SW 8 13 30.36 1028 30 48 N/A
9:20 pm 21:20 Mostly Clear 32 0 30 -1 93 93 SW 7 11 30.36 1028 30 48 N/A
10:20 pm 22:20 Mostly Clear 30 -1 28 -2 93 93 SSW 2 4 30.39 1029 30 48 N/A
11:20 pm 23:20 Mostly Clear 28 -2 28 -2 100 100 SW 6 9 30.37 1028 4 7 N/A

Powered by AerisWeather